[[{"header":{"parameterUnit":"m.s-1","parameterCategory":1,"la1":30.2992,"la2":30.254,"lo1":-89.0895,"lo2":-89.0443,"dy":0.0025,"dx":0.0025,"nx":19,"ny":19,"refTime":"2026-05-21T09:00:00:Z","depth":0,"parameterNumber":2,"parameterNumberName":"U-component_of_WINDS"},"data":[0,0,0,-0.823,-0.823,-0.8204,-0.8204,-0.8177,-0.8177,0,0,0,0,0,0,0,0,0,0,0,-0.8241,-0.8241,-0.823,-0.823,-0.8204,-0.8204,-0.8177,-0.8177,0,0,0,0,0,0,0,0,0,0,0,-0.8241,-0.8241,-0.8241,-0.8229,-0.8205,-0.8204,-0.8178,-0.8195,0,0,0,0,0,0,0,0,0,0,-0.8218,-0.8231,-0.8241,-0.8241,-0.8229,-0.8205,-0.8204,-0.8195,-0.8193,-0.8191,0,-0.819,0,-0.8183,-0.8176,-0.8176,0,0,0,-0.8227,-0.8232,-0.8223,-0.8241,-0.8229,-0.8205,-0.8215,-0.8194,-0.8192,-0.8189,-0.819,-0.8188,-0.8183,-0.8176,-0.8176,-0.8173,-0.8173,0,0,-0.8228,-0.8238,-0.8224,-0.8222,-0.8226,-0.8216,-0.8214,-0.8193,-0.8194,-0.8189,-0.8188,-0.8183,-0.8176,-0.8175,-0.8173,-0.8173,0,0,0,-0.8234,-0.8239,-0.823,-0.8223,-0.8218,-0.8215,-0.8213,-0.8195,-0.8191,-0.8187,-0.8182,-0.8175,-0.8175,-0.8173,-0.8173,-0.8188,0,0,0,-0.8235,-0.8242,-0.823,-0.8236,-0.8219,-0.8206,-0.8216,-0.8193,-0.819,-0.8182,-0.8175,-0.8175,-0.8173,-0.8173,-0.8187,-0.8193,0,0,0,-0.8241,-0.8243,-0.824,-0.8236,-0.8226,-0.8206,-0.8201,-0.8192,-0.8187,-0.8176,-0.8175,-0.8172,-0.8173,-0.8187,-0.8192,-0.8196,0,0,0,-0.825,-0.8252,-0.8241,-0.8241,-0.8226,-0.8216,-0.8201,-0.8193,-0.8185,-0.8175,-0.8173,-0.8173,-0.8186,-0.8191,-0.8195,-0.82,-0.8203,0,0,-0.8258,-0.8254,-0.8254,-0.8242,-0.8237,-0.8219,-0.8216,-0.8199,-0.8189,-0.8179,-0.8179,-0.8187,-0.8192,-0.8195,-0.8218,-0.8221,0,0,0,-0.8259,-0.8259,-0.8256,-0.8249,-0.8238,-0.8229,-0.8212,-0.8206,-0.8197,-0.8186,-0.819,-0.8192,-0.8194,-0.8196,-0.8198,-0.8199,-0.8174,-0.8174,-0.8174,-0.8282,-0.8271,-0.8271,-0.8257,-0.8251,-0.8235,-0.823,-0.8219,-0.8208,-0.821,-0.8206,-0.8221,-0.8224,-0.8225,-0.8227,-0.8208,-0.8208,-0.8208,-0.8208,-0.8293,-0.8291,-0.8279,-0.8274,-0.8263,-0.8258,-0.8244,-0.8237,-0.8232,-0.8222,-0.8223,-0.8214,-0.8229,-0.8229,-0.8209,-0.8209,-0.8209,-0.8209,-0.8209,-0.8306,-0.8303,-0.8298,-0.8289,-0.8284,-0.8271,-0.8267,-0.8256,-0.8246,-0.8247,-0.8243,-0.8243,-0.8241,-0.8246,-0.8246,-0.8246,-0.8246,-0.8246,-0.8246,-0.8322,-0.8315,-0.8313,-0.8304,-0.83,-0.8293,-0.8279,-0.8275,-0.8267,-0.8259,-0.8259,-0.8249,-0.8233,-0.8229,-0.8247,-0.8247,-0.8247,-0.8247,-0.8247,-0.8335,-0.8331,-0.8328,-0.8325,-0.8314,-0.831,-0.8298,-0.829,-0.8285,-0.8284,-0.8274,-0.8264,-0.8258,-0.8256,-0.8253,-0.8276,-0.8276,-0.8276,-0.8276,-0.8346,-0.8343,-0.8339,-0.8334,-0.8328,-0.8318,-0.8316,-0.8306,-0.8295,-0.8292,-0.8287,-0.8282,-0.8281,-0.8276,-0.8274,-0.827,-0.8298,-0.8298,-0.8298,-0.8354,-0.8351,-0.8351,-0.8341,-0.8333,-0.8326,-0.8324,-0.8319,-0.8306,-0.8298,-0.8289,-0.8288,-0.828,-0.8278,-0.8268,-0.8265,-0.8258,0,0]},{"header":{"parameterUnit":"m.s-1","parameterCategory":1,"la1":30.2992,"la2":30.254,"lo1":-89.0895,"lo2":-89.0443,"dy":0.0025,"dx":0.0025,"nx":19,"ny":19,"refTime":"2026-05-21T09:00:00:Z","depth":0,"parameterNumber":3,"parameterNumberName":"V-component_of_WINDS"},"data":[0,0,0,5.8461,5.8464,5.8605,5.8605,5.8776,5.8778,0,0,0,0,0,0,0,0,0,0,0,5.8418,5.842,5.846,5.8464,5.8605,5.8605,5.8776,5.8778,0,0,0,0,0,0,0,0,0,0,0,5.8418,5.8419,5.8421,5.8465,5.8605,5.8605,5.8776,5.8671,0,0,0,0,0,0,0,0,0,0,5.8536,5.8498,5.8419,5.8421,5.8465,5.8604,5.8605,5.8666,5.8678,5.871,0,5.8743,0,5.8763,5.8789,5.879,0,0,0,5.8463,5.8488,5.8527,5.8421,5.8467,5.8604,5.8541,5.8673,5.8686,5.8725,5.8746,5.8752,5.8766,5.879,5.8791,5.899,5.8991,0,0,5.8455,5.8443,5.8518,5.8535,5.8519,5.8536,5.8545,5.8681,5.87,5.8746,5.8756,5.8769,5.8791,5.8793,5.8989,5.899,0,0,0,5.8434,5.8437,5.8473,5.8528,5.8555,5.8541,5.8551,5.8694,5.8707,5.8758,5.8771,5.8792,5.8794,5.8988,5.8989,5.9025,0,0,0,5.8429,5.8425,5.8469,5.8463,5.8552,5.8627,5.8561,5.8698,5.8714,5.877,5.8792,5.8796,5.8987,5.8989,5.9022,5.9044,0,0,0,5.8409,5.8422,5.8443,5.8462,5.8523,5.8626,5.8646,5.8701,5.8722,5.879,5.8796,5.8986,5.8988,5.9019,5.9039,5.9091,0,0,0,5.8384,5.8472,5.8443,5.8547,5.8521,5.8649,5.8646,5.874,5.8803,5.8793,5.8987,5.8989,5.9019,5.9036,5.9088,5.9132,5.915,0,0,5.8488,5.8484,5.8546,5.8524,5.8654,5.8628,5.8761,5.8829,5.8845,5.8939,5.8944,5.9023,5.9039,5.909,5.9257,5.9271,0,0,0,5.8574,5.8618,5.8656,5.8717,5.8773,5.8821,5.8871,5.8896,5.8977,5.8893,5.9058,5.9067,5.9098,5.9119,5.9131,5.9157,5.8999,5.8999,5.8999,5.8702,5.8721,5.8823,5.8858,5.8917,5.8967,5.9015,5.9055,5.9055,5.9094,5.9121,5.922,5.9245,5.9254,5.9281,5.9147,5.9147,5.9148,5.9148,5.8855,5.8919,5.8918,5.9017,5.9034,5.9115,5.9165,5.9162,5.9237,5.9202,5.9229,5.9187,5.9269,5.9293,5.9151,5.915,5.915,5.9149,5.9149,5.8939,5.8973,5.9004,5.9093,5.9159,5.9189,5.9262,5.9275,5.9286,5.9314,5.9343,5.9342,5.9341,5.9327,5.9328,5.9328,5.9328,5.9329,5.9329,5.9014,5.9048,5.911,5.9177,5.9216,5.927,5.932,5.9357,5.9402,5.9405,5.9405,5.9398,5.9276,5.9243,5.9334,5.9333,5.9333,5.9332,5.9332,5.9159,5.9128,5.9224,5.9264,5.9342,5.9404,5.942,5.9495,5.9528,5.9563,5.9551,5.9459,5.9454,5.9445,5.9418,5.9549,5.9549,5.9549,5.9549,5.9228,5.9229,5.9329,5.9391,5.9454,5.9478,5.958,5.9618,5.9652,5.9672,5.9655,5.9621,5.9611,5.9612,5.9599,5.9574,5.9742,5.9742,5.9742,5.9317,5.9324,5.9411,5.9448,5.9509,5.9559,5.9655,5.9722,5.9754,5.975,5.9687,5.9679,5.9624,5.9606,5.9599,5.9578,5.9533,0,0]}]]